MST,Max TemperatureF,Mean TemperatureF,Min TemperatureF,Max Dew PointF,MeanDew PointF,Min DewpointF,Max Humidity, Mean Humidity, Min Humidity, Max Sea Level PressureIn, Mean Sea Level PressureIn, Min Sea Level PressureIn, Max VisibilityMiles, Mean VisibilityMiles, Min VisibilityMiles, Max Wind SpeedMPH, Mean Wind SpeedMPH, Max Gust SpeedMPH,PrecipitationIn, CloudCover, Events, WindDirDegrees
2012-11-1,60,45,29,27,23,18,78,50,21,30.07,29.95,29.83,10,10,10,26,11,31,0.00,0,,221
2012-11-2,54,41,28,26,22,19,75,51,26,30.13,29.98,29.85,10,10,10,23,9,30,0.00,2,,281
2012-11-3,53,38,23,29,20,14,81,51,20,30.23,30.14,30.07,10,10,10,17,7,22,0.00,0,,224
2012-11-4,54,40,26,27,23,17,69,49,29,30.28,30.17,30.07,10,10,10,28,11,35,0.00,2,,290
2012-11-5,56,40,23,32,26,21,88,60,32,30.27,30.18,30.08,10,10,10,28,10,32,0.00,0,,240
2012-11-6,60,44,28,30,25,22,78,51,24,30.27,30.16,30.08,10,10,10,25,10,30,0.00,0,,244
2012-11-7,64,47,29,23,18,13,69,43,16,30.17,29.95,29.81,10,10,10,26,13,33,0.00,0,,219
2012-11-8,58,43,27,28,23,17,75,52,28,29.93,29.77,29.64,10,10,10,31,17,37,0.00,0,,166
2012-11-9,59,46,32,27,23,16,59,41,23,29.73,29.50,29.31,10,10,10,41,18,48,0.00,0,,200
2012-11-10,44,28,11,34,24,9,100,74,47,29.79,29.52,29.23,10,8,1,45,14,56,0.16,5,Rain-Snow,306
2012-11-11,23,16,9,8,4,0,92,66,39,30.26,30.06,29.81,10,10,10,35,16,41,0.00,3,,279
2012-11-12,41,27,13,7,3,-1,58,39,20,30.39,30.30,30.18,10,10,10,36,19,45,0.00,1,,245
2012-11-13,42,33,23,19,15,1,68,48,28,30.27,30.21,30.14,10,10,10,28,16,33,0.00,2,,238
2012-11-14,50,37,24,28,19,12,78,52,25,30.22,30.14,30.03,10,10,10,31,15,37,0.00,4,,230
2012-11-15,44,33,22,30,26,19,100,71,41,30.36,30.28,30.13,10,8,2,17,9,20,T,5,Snow,143
2012-11-16,56,38,20,31,18,12,92,55,18,30.26,30.11,29.95,10,10,10,29,11,33,0.00,2,,206
2012-11-17,53,42,31,30,29,26,85,63,41,30.07,30.00,29.94,10,10,10,29,13,33,T,3,,237
2012-11-18,51,39,27,31,26,24,92,64,35,30.07,29.96,29.86,10,10,10,29,11,37,0.00,2,,238
2012-11-19,50,40,29,29,25,21,89,63,36,30.25,30.15,30.06,10,10,10,21,11,25,0.00,1,,234
2012-11-20,56,44,31,24,20,17,64,44,24,30.24,30.11,29.95,10,10,10,30,15,36,0.00,0,,217
2012-11-21,59,48,36,18,13,8,40,27,14,29.97,29.86,29.74,10,10,10,33,18,39,0.00,0,,229
2012-11-22,45,31,16,25,10,-4,69,42,14,30.44,30.11,29.75,10,10,10,36,17,44,0.00,1,,307
2012-11-23,51,31,10,13,9,5,76,46,16,30.54,30.40,30.14,10,10,10,22,7,28,0.00,0,,214
2012-11-24,55,44,33,13,11,2,35,24,12,30.11,29.95,29.81,10,10,10,44,22,51,0.00,0,,250
2012-11-25,53,40,26,22,14,8,59,38,17,29.90,29.81,29.64,10,10,10,44,19,51,0.00,2,,244
2012-11-26,34,26,18,23,17,-1,96,60,24,30.27,30.17,29.88,10,10,9,26,11,31,T,4,Snow,334
2012-11-27,50,40,30,9,4,-1,36,26,15,30.22,30.12,30.01,10,10,10,35,22,41,0.00,0,,241
2012-11-28,48,40,32,15,9,5,43,31,19,30.20,30.07,29.95,10,10,10,29,15,36,0.00,0,,227
2012-11-29,51,43,34,22,19,15,56,41,26,30.01,29.94,29.83,10,10,10,43,21,51,0.00,0,,241
2012-11-30,54,44,33,24,22,20,61,45,28,29.99,29.85,29.74,10,10,10,33,16,41,0.00,1,,220